Theta_e
334 334 337 339 341 339 337 337 338 339 339 339 338 338 339 338 338 338 339 339 339 338 338 339 338 338 338 336 337 337 335 334 334 330 330 332 329 330 334 335 335 336 334 334 332 326 323 319 319 325 327 328 328 328 328 328 329 329 329 331 331 331 330
336 336 338 339 338 338 337 337 336 335 336 338 337 338 338 337 338 338 339 338 338 337 335 338 339 339 339 339 339 338 337 336 334 334 331 331 331 330 332 333 332 331 332 333 332 332 325 323 319 319 319 324 326 326 326 328 328 330 330 329 329 329 330
337 337 338 337 336 337 335 335 335 335 335 336 338 337 337 336 336 337 337 336 337 336 334 335 339 340 340 339 340 339 340 336 335 335 330 332 331 332 332 331 329 328 329 329 330 329 327 327 322 320 322 322 320 322 327 327 327 328 329 329 329 328 329
337 338 335 334 333 334 333 333 333 332 333 333 335 338 337 336 337 337 335 335 336 336 333 334 338 335 340 340 340 340 339 337 335 335 334 334 333 332 332 330 328 328 327 325 327 329 327 324 322 322 324 324 320 319 323 326 326 327 328 329 328 329 330
337 335 334 332 331 330 332 331 332 332 332 333 334 335 337 337 337 336 337 336 335 335 333 334 335 335 340 340 340 337 336 336 336 335 334 333 332 332 332 331 330 330 332 332 328 328 326 324 324 323 322 322 322 321 322 324 324 324 326 327 329 330 330
338 337 334 334 334 333 332 332 331 330 331 331 331 332 334 336 335 335 335 333 334 335 335 333 335 334 335 337 339 338 336 335 336 337 334 335 334 329 331 333 335 331 333 334 331 329 329 328 327 322 321 323 319 318 320 322 321 324 325 326 327 328 327
336 335 334 334 334 331 331 331 331 330 329 330 330 331 334 335 334 335 335 334 334 334 334 334 334 335 335 333 338 338 338 339 340 338 337 337 336 335 335 333 332 331 332 333 333 332 329 329 325 324 322 322 322 319 320 320 320 318 320 322 323 323 321
334 334 333 333 333 332 333 332 332 331 329 331 330 333 334 334 335 335 334 333 332 334 334 335 335 335 336 332 333 337 336 338 338 338 337 338 336 335 335 333 334 331 332 332 333 332 329 329 328 326 324 320 319 320 318 319 319 319 317 319 320 319 319
334 335 334 334 334 334 333 332 332 332 332 331 333 333 334 335 334 334 333 332 332 334 334 334 334 332 334 333 332 336 334 334 338 338 338 338 338 337 335 334 332 332 333 333 333 332 328 330 330 328 327 322 316 314 316 316 317 316 319 316 316 317 316
336 334 334 335 335 335 335 333 331 332 333 333 333 335 334 335 334 333 333 331 332 334 333 332 333 333 334 333 332 333 333 334 335 335 337 337 338 337 336 334 332 332 334 336 334 333 333 333 330 328 324 322 320 316 313 313 315 314 316 318 313 313 314
335 335 336 335 335 334 334 333 333 331 331 332 333 334 335 334 333 332 332 331 331 332 331 329 329 331 333 330 331 331 331 333 333 334 336 337 337 337 336 334 333 331 335 335 335 337 335 333 328 325 323 324 322 317 315 313 313 317 315 316 315 311 312
336 335 334 334 334 333 331 331 331 331 332 332 330 332 333 332 332 331 332 329 328 329 331 331 330 330 330 329 329 328 330 330 328 330 333 336 336 336 335 334 334 333 336 336 336 335 334 330 326 323 322 323 322 321 319 316 313 316 319 314 313 313 312
334 334 334 332 331 332 330 331 332 333 331 330 330 330 330 330 330 330 329 327 326 327 328 330 330 329 329 329 328 327 329 329 327 328 332 335 333 336 335 334 334 334 336 335 335 332 329 329 327 322 322 321 321 322 319 317 315 314 317 315 314 312 313
335 333 334 332 332 332 332 332 332 332 330 330 331 330 329 330 330 330 328 326 325 326 327 329 330 329 328 327 327 327 327 326 325 327 331 333 334 335 334 333 334 334 335 334 331 329 326 326 326 324 323 321 319 321 319 317 313 314 319 319 315 312 314
334 334 334 333 332 331 332 331 333 331 330 330 329 327 327 328 330 329 326 324 324 323 325 327 328 327 325 325 326 326 325 325 325 327 329 329 334 334 335 332 331 333 333 331 329 324 324 323 322 321 321 321 319 320 322 317 314 313 314 318 313 314 313
333 333 333 332 332 330 330 331 331 330 329 327 328 326 326 329 329 327 325 324 322 322 323 325 327 325 324 324 323 325 325 325 325 325 326 328 328 332 333 332 330 332 333 331 328 325 325 322 322 320 321 321 321 321 320 319 317 314 314 313 316 313 313
334 333 332 331 331 331 331 330 329 328 327 327 325 326 328 327 327 326 324 322 322 321 322 325 324 323 323 323 323 323 323 324 324 324 323 324 325 328 328 328 329 332 332 328 326 325 325 325 323 322 322 323 323 322 323 323 321 319 317 314 315 313 313
333 333 332 330 331 331 330 329 327 326 326 325 325 326 326 327 326 324 324 322 321 321 321 323 324 324 325 325 324 323 322 323 324 324 324 323 326 326 327 327 326 327 329 327 328 326 325 325 323 324 322 321 321 323 324 323 322 320 318 317 315 316 316
331 332 332 331 332 331 330 328 327 327 325 324 324 325 325 325 323 322 322 321 320 321 321 322 323 323 323 324 324 324 324 323 323 323 323 324 324 325 324 325 327 328 328 328 327 327 327 327 324 324 324 321 320 321 323 322 322 321 319 318 318 314 317
331 331 331 331 331 330 329 329 327 326 325 324 324 324 324 324 324 322 321 321 320 320 320 321 323 324 323 323 323 323 324 324 323 323 323 322 323 325 324 324 325 325 325 325 326 326 327 327 326 325 323 323 321 321 322 322 321 320 320 319 319 317 316
331 331 331 330 329 329 328 328 326 326 324 323 323 323 323 323 324 323 323 322 322 323 322 322 322 322 323 323 323 323 323 324 322 323 323 322 323 322 323 323 324 324 324 325 325 326 327 324 324 324 324 324 324 322 321 320 320 319 319 319 318 318 316
331 330 328 328 328 328 328 328 327 326 325 324 324 324 324 323 322 323 322 324 323 323 323 323 324 324 324 322 324 323 323 322 323 322 323 323 323 323 323 323 323 326 331 321 309 313 315 315 328 322 323 323 323 322 321 320 319 317 317 317 317 319 316
325 325 326 326 327 327 327 328 327 326 325 324 324 324 323 323 321 322 322 322 323 325 325 328 317 300 308 326 324 323 324 324 323 323 322 322 323 323 323 325 330 318 314 314 311 304 304 304 306 319 326 325 323 322 321 320 318 317 317 315 315 315 314
321 321 323 324 325 325 324 325 325 325 325 325 324 323 324 323 324 322 321 322 322 324 327 326 297 298 300 304 321 325 324 323 324 323 323 322 322 323 323 323 327 324 323 317 321 300 300 300 301 300 299 301 307 327 322 318 318 319 316 317 316 316 314
320 320 320 319 320 321 323 324 322 322 322 322 324 325 324 324 325 326 324 323 323 324 328 296 294 296 296 295 304 331 325 324 324 323 323 322 323 324 324 325 326 327 326 326 325 324 312 300 299 300 298 298 299 298 298 318 321 319 319 317 316 317 317
319 319 319 319 319 320 322 322 323 322 322 324 325 323 323 322 322 324 325 322 324 326 322 294 293 294 295 294 294 308 325 325 324 323 323 324 324 325 325 327 329 328 326 322 322 325 326 325 301 295 299 299 298 297 298 297 298 317 323 319 318 317 317
318 319 321 322 322 321 321 321 322 323 323 322 322 321 321 322 323 323 324 325 324 320 312 297 293 293 294 293 294 299 328 327 326 325 325 324 326 327 328 328 328 329 330 328 326 326 327 328 327 323 322 322 323 316 297 295 296 293 304 319 321 318 320
320 321 321 321 320 320 320 320 320 322 323 323 322 321 320 320 321 322 323 324 320 315 308 293 293 292 294 293 295 297 328 329 327 327 327 328 329 329 329 329 328 328 329 330 331 327 328 328 328 328 328 327 326 326 325 324 323 322 321 321 321 322 322
319 319 319 319 319 318 318 319 319 321 321 321 321 320 320 322 322 322 323 323 321 316 307 291 291 293 293 295 293 319 328 328 327 328 329 331 330 330 329 329 329 328 329 329 314 305 312 325 327 327 326 326 326 326 327 307 297 300 313 322 325 325 324
310 312 314 313 312 313 315 319 321 323 321 321 320 319 318 318 320 320 321 323 322 316 310 295 291 292 293 291 298 327 327 326 326 327 328 329 328 328 329 328 328 328 328 329 303 298 299 302 323 324 324 325 325 325 325 317 297 292 292 292 291 293 292
306 306 306 307 308 309 311 313 315 317 317 317 317 316 315 313 313 313 315 318 319 314 308 297 291 292 292 292 296 323 325 325 326 325 326 328 327 327 326 313 319 325 325 322 292 297 293 306 322 323 324 323 323 322 323 321 316 309 291 291 290 290 290
308 307 306 308 310 310 310 310 312 313 311 311 312 313 313 312 312 313 312 310 308 310 308 300 291 291 291 292 302 322 323 324 324 324 324 324 327 326 327 317 307 308 313 302 290 295 293 303 322 323 324 323 321 319 321 324 319 316 313 313 310 309 306
307 307 307 308 309 309 310 311 310 309 308 307 307 309 310 310 310 310 311 310 310 311 311 306 295 290 291 293 292 309 321 320 319 319 321 320 320 322 323 322 304 292 293 291 293 290 292 292 314 324 324 323 322 319 323 323 322 321 320 318 319 316 315
307 307 308 308 309 309 310 310 311 311 309 308 309 309 308 308 308 309 309 309 307 305 306 308 300 289 291 291 290 297 319 316 317 318 318 318 319 319 319 320 320 295 292 291 291 290 291 291 293 314 321 321 322 316 311 321 316 303 319 318 315 312 312
307 307 308 308 308 308 309 310 310 311 312 312 311 310 309 308 308 308 308 308 308 306 301 299 305 294 290 290 290 291 309 308 305 312 315 318 316 318 319 318 321 300 291 292 291 290 290 291 290 305 315 302 295 296 318 319 320 317 317 314 312 310 310
305 306 306 307 306 306 306 307 308 309 309 309 308 308 308 308 308 307 306 305 306 306 305 302 294 299 291 290 290 290 290 299 291 307 312 312 311 311 312 313 310 294 291 290 291 290 290 290 291 305 298 295 296 294 302 317 316 315 313 312 312 311 308
303 304 305 305 305 305 305 305 305 306 306 306 305 306 306 307 307 307 306 306 307 307 308 307 297 294 297 290 291 289 289 288 289 303 308 310 310 310 309 308 302 290 289 290 290 291 290 291 300 296 294 294 291 293 310 312 311 311 307 306 307 306 305
Wind_Speed
9 9 8 9 8 8 8 8 7 7 7 6 6 6 6 5 5 5 5 5 5 6 6 5 5 5 4 3 3 4 3 4 4 3 5 5 5 4 3 2 2 1 2 2 4 3 6 7 7 7 6 5 5 5 4 4 3 3 3 3 4 4 4
8 7 9 7 8 8 8 7 7 7 6 5 5 5 5 5 4 4 5 5 4 4 5 5 5 5 6 5 5 5 5 5 4 3 4 5 6 5 5 4 3 3 2 2 2 4 6 4 8 7 6 5 6 5 4 3 3 4 5 4 4 4 4
9 9 8 9 8 8 9 8 7 6 6 5 5 5 4 5 5 5 5 5 4 4 4 5 4 5 6 5 5 5 6 6 4 4 4 4 4 3 5 4 4 3 3 2 3 3 6 7 5 7 7 7 6 4 4 4 5 5 5 5 6 5 4
11 10 9 10 8 8 8 8 8 7 6 6 5 4 4 4 4 3 3 3 3 3 3 5 6 5 5 5 5 5 5 6 5 5 5 3 4 4 5 4 3 5 5 5 5 3 2 4 5 5 6 5 7 7 4 4 4 5 5 5 5 5 4
11 9 10 10 10 10 9 9 8 7 6 6 5 5 4 4 3 3 2 2 3 3 3 4 4 5 5 6 5 5 5 5 4 5 6 5 6 3 5 4 5 2 2 3 4 3 2 3 4 5 5 6 6 6 7 5 4 5 6 6 6 6 5
10 10 10 10 9 8 8 8 8 7 6 6 6 6 5 6 4 4 4 3 3 2 3 4 4 4 4 5 5 6 5 5 5 5 4 5 6 7 7 3 1 5 5 1 3 3 2 3 3 5 5 5 6 7 7 6 6 5 5 6 5 5 6
9 10 9 10 9 8 8 7 7 6 6 6 7 6 6 7 5 5 4 3 2 3 3 3 3 3 3 4 5 5 6 5 5 5 4 4 4 4 2 3 7 4 1 2 2 3 4 4 4 6 6 5 6 7 8 7 6 6 5 4 5 5 5
9 8 8 8 8 8 8 8 6 6 6 7 7 6 7 6 6 5 5 4 3 3 3 3 3 3 3 3 4 4 4 4 4 4 4 4 4 5 4 5 2 2 3 4 3 4 5 4 5 6 6 7 7 6 7 7 8 7 7 6 5 6 6
7 8 7 7 7 7 7 8 7 6 6 6 7 7 7 6 6 6 5 4 4 3 4 4 4 3 3 3 3 3 3 3 4 4 4 5 4 5 5 2 4 4 3 3 5 3 3 4 5 5 4 5 6 7 6 7 5 7 7 6 5 5 6
8 8 7 8 8 7 7 7 7 6 6 6 7 7 6 6 6 6 5 5 4 4 4 3 3 2 2 3 4 4 4 4 3 4 4 4 5 5 4 5 3 4 3 2 2 4 4 3 5 4 3 4 4 5 7 7 6 7 7 6 6 5 5
7 7 7 8 8 7 8 7 7 7 7 6 6 5 6 7 7 7 6 5 4 4 4 3 3 3 3 3 4 4 4 4 4 4 4 4 5 4 5 5 4 4 4 4 4 4 4 4 5 4 2 2 1 4 5 5 7 6 6 3 4 7 6
7 8 7 8 8 8 9 8 8 7 6 6 7 6 7 7 7 7 6 5 5 5 4 4 3 3 4 5 5 5 4 4 4 5 4 4 5 5 5 5 5 5 4 4 5 4 5 5 5 4 3 4 4 3 4 5 6 5 5 5 4 6 7
8 9 9 8 8 9 9 8 8 7 7 6 6 7 7 7 8 7 6 6 6 5 5 5 4 5 5 4 4 4 4 3 4 5 5 5 5 5 6 6 6 5 5 5 5 5 6 5 4 4 5 5 5 3 1 5 5 7 4 5 5 7 8
9 9 9 9 9 9 8 8 8 6 7 7 7 7 7 7 8 7 7 6 6 5 5 5 5 5 5 5 5 5 5 5 6 5 5 6 6 6 6 7 6 6 5 6 6 6 6 7 5 4 4 4 5 3 3 4 6 7 5 3 5 6 7
9 7 8 9 8 8 8 7 7 8 8 7 7 6 7 7 7 7 6 6 5 5 6 6 6 5 6 6 5 3 4 5 6 6 6 7 7 5 6 7 7 7 6 6 7 7 7 7 6 5 5 4 4 4 0 3 6 6 7 5 5 6 7
9 9 10 9 8 7 7 8 8 7 7 7 6 6 7 7 8 7 6 5 5 5 6 7 6 6 6 6 6 5 4 5 5 6 7 7 7 7 7 7 7 6 5 7 6 6 6 6 5 5 5 3 4 3 2 1 3 7 7 6 6 7 7
10 10 10 9 10 9 8 8 7 7 8 7 7 6 7 8 8 7 6 6 5 5 6 6 7 7 7 6 6 6 5 4 5 5 6 7 7 7 8 7 7 6 7 7 6 6 5 4 3 4 4 4 3 3 2 1 3 1 7 7 8 8 8
10 10 10 10 11 10 9 8 7 8 8 7 7 7 7 7 7 7 6 6 6 5 6 7 7 6 6 5 5 5 4 4 4 5 5 6 6 7 7 7 7 7 6 6 5 5 4 5 4 2 2 2 2 3 2 3 4 5 4 6 7 7 8
10 11 11 10 11 10 9 9 8 8 8 8 8 7 7 7 7 7 7 6 6 6 5 6 7 7 7 6 5 5 5 5 4 4 4 4 5 5 6 6 5 6 5 5 5 4 4 5 3 3 3 3 2 3 3 3 5 5 6 6 8 7 8
10 10 10 10 9 9 9 9 9 8 8 8 8 7 7 7 6 6 6 6 6 6 6 5 6 6 7 7 7 6 6 5 5 4 3 4 4 3 4 5 4 4 3 3 3 4 4 4 3 4 3 4 4 2 4 5 5 6 6 7 7 8 7
9 9 9 9 9 9 9 8 8 8 7 8 7 7 7 6 5 5 6 5 6 5 5 5 6 6 7 7 6 6 6 5 6 5 4 4 4 3 3 3 3 2 2 2 1 3 3 4 3 3 3 2 2 3 4 4 4 5 6 6 7 7 8
6 6 10 10 10 10 9 9 9 8 8 7 5 6 5 6 5 5 6 5 6 5 5 4 4 4 7 7 6 6 6 6 6 6 5 5 4 3 3 3 2 3 6 7 8 7 7 6 3 2 2 2 2 3 4 4 4 5 5 5 6 6 7
9 4 4 9 10 9 9 8 8 8 8 7 6 4 4 4 5 5 5 6 5 4 4 3 6 8 9 1 6 5 5 5 6 6 5 5 4 4 3 4 4 6 4 3 3 3 3 5 7 6 5 2 3 4 4 4 5 5 6 7 7 7 7
7 7 6 6 8 9 9 8 8 8 7 7 7 5 3 2 2 4 4 4 5 3 3 4 5 6 3 7 2 5 5 5 5 5 5 5 5 5 5 5 5 5 5 4 3 3 1 3 4 7 8 8 8 7 5 5 5 5 6 6 6 7 8
9 8 7 6 7 7 6 7 7 6 6 6 4 3 3 2 1 1 1 4 5 3 5 8 5 5 7 6 6 2 4 4 4 5 4 4 4 4 5 5 4 4 5 4 4 6 5 4 2 2 4 6 8 10 6 3 5 6 5 6 7 7 7
9 8 8 5 5 5 5 5 5 4 5 4 3 1 2 2 1 1 2 1 4 6 6 9 7 6 6 6 6 7 4 4 5 5 4 5 4 4 4 4 4 3 3 5 3 4 4 6 5 3 3 5 7 7 10 8 4 4 6 8 8 8 8
9 7 7 6 5 6 6 5 5 4 4 4 4 3 3 3 3 4 3 4 8 8 7 8 8 6 6 7 7 7 5 3 4 4 5 5 4 4 4 4 4 4 3 4 4 4 4 4 5 5 6 6 7 7 7 9 11 8 6 7 9 10 10
10 9 8 7 6 6 5 4 4 4 5 6 5 4 3 4 2 2 3 6 9 8 6 8 7 6 4 6 5 6 4 3 4 4 4 3 3 3 3 3 3 4 3 3 3 2 4 4 5 6 6 7 7 8 7 8 9 8 8 8 10 11 11
9 9 9 9 8 7 6 6 7 6 6 6 5 5 4 4 4 4 4 7 9 8 7 11 9 7 7 7 8 6 3 3 3 3 2 3 3 3 3 3 3 4 3 4 7 6 3 5 5 7 7 7 8 8 7 5 6 6 4 4 5 6 6
9 9 8 8 8 7 6 6 7 5 6 6 6 5 5 5 5 6 6 7 8 7 7 10 10 9 9 10 9 4 1 3 2 2 2 1 3 2 3 2 2 3 3 1 6 6 2 2 5 7 8 9 9 8 7 3 5 6 4 3 5 5 6
9 9 8 8 7 6 5 5 6 5 5 5 5 6 6 6 7 7 8 8 7 7 6 9 10 9 9 10 10 5 3 2 2 2 2 3 3 3 4 9 2 3 3 5 5 4 2 4 6 7 7 8 9 9 8 4 4 3 5 5 5 5 4
10 10 9 8 7 8 8 7 6 6 7 7 6 5 6 7 8 8 9 9 9 8 7 7 9 9 8 9 8 3 3 3 2 2 2 2 2 3 2 6 5 7 6 7 5 1 3 7 6 8 8 9 9 10 8 4 5 5 4 5 5 5 5
10 9 9 8 7 7 6 6 7 6 6 6 6 5 6 8 9 7 8 8 7 6 7 7 9 11 11 11 11 6 2 3 2 3 3 3 4 2 2 4 8 8 8 6 4 2 5 7 7 7 8 8 8 9 6 4 4 4 5 6 3 3 4
10 9 8 7 6 6 5 5 5 5 6 7 7 5 6 6 6 6 6 7 7 8 6 6 8 10 10 11 12 10 4 5 4 2 3 3 5 4 3 2 5 8 10 7 5 4 6 7 8 7 7 9 4 4 5 5 4 2 6 4 4 4 4
8 8 8 7 6 6 6 5 4 4 4 5 5 5 5 5 4 5 6 6 5 6 7 8 5 8 8 9 10 11 5 4 4 3 4 3 3 2 3 3 3 9 10 9 9 5 5 6 7 6 7 8 6 4 5 7 4 3 5 5 5 5 5
8 6 7 7 7 6 5 6 5 5 4 5 5 5 5 4 5 5 5 5 5 5 5 5 6 6 8 9 8 8 5 3 5 6 3 2 3 3 3 4 5 11 11 10 10 8 6 6 6 7 9 6 5 1 4 7 8 6 6 5 6 6 5
8 7 8 7 6 6 6 5 4 4 4 3 3 3 3 3 3 4 4 4 4 4 4 5 7 7 6 7 7 6 5 4 6 5 5 3 4 3 3 4 6 10 9 9 9 9 6 5 6 5 4 6 5 5 5 6 7 7 6 5 6 6 6
Wind_Direction
174 159 167 161 174 169 162 167 165 163 171 170 166 173 172 169 172 175 173 172 175 172 166 178 174 177 178 161 165 199 201 200 190 195 171 170 191 159 201 210 148 94 103 277 286 185 146 150 116 83 82 85 92 78 72 97 112 105 101 107 114 123 115
157 168 157 161 166 160 158 163 165 161 161 162 166 163 173 161 161 166 166 171 177 180 176 180 181 174 185 170 179 191 198 196 192 199 172 177 208 162 182 190 196 182 181 235 189 268 136 165 144 135 117 111 102 89 96 104 108 119 109 98 94 100 102
163 155 158 158 161 160 157 161 155 156 156 159 157 162 160 161 164 163 174 169 169 175 186 166 174 176 181 182 188 184 196 195 205 184 202 189 212 148 198 174 199 179 224 160 206 211 137 171 143 165 157 165 143 105 112 118 126 124 124 124 127 106 101
151 154 159 159 154 164 159 161 163 160 162 158 155 147 155 148 146 153 164 168 167 171 188 168 179 178 172 172 178 181 192 201 199 206 200 186 190 183 206 181 208 221 177 206 156 201 187 137 128 146 153 125 122 125 117 115 134 127 124 122 113 114 113
157 159 160 158 162 165 161 161 160 156 156 149 153 147 148 144 144 150 157 161 163 190 194 199 190 179 175 168 167 179 185 196 203 203 197 189 199 169 238 204 218 277 328 290 145 183 205 124 158 138 121 124 139 124 127 140 143 133 135 124 122 129 131
159 159 157 155 164 161 158 160 158 156 150 152 155 156 150 156 159 154 161 163 157 189 204 203 195 184 184 171 166 179 179 182 190 202 198 196 191 192 191 239 62 226 217 220 103 191 91 115 142 134 126 159 124 127 137 145 145 137 129 131 132 121 113
163 160 157 160 162 158 159 159 162 155 155 154 157 163 154 164 160 149 147 136 134 151 182 192 190 190 189 190 167 179 172 181 172 185 192 177 196 234 153 191 211 191 202 115 148 148 135 153 155 144 146 137 144 144 154 161 137 140 135 120 117 112 113
159 160 162 159 162 157 161 157 158 153 156 156 162 155 159 163 152 148 135 131 128 130 148 166 176 184 193 196 173 164 162 164 159 177 167 170 182 195 188 205 139 236 138 158 166 184 144 161 148 154 160 150 156 153 149 139 164 146 138 126 127 120 98
161 160 154 157 157 153 157 158 151 155 152 153 155 156 161 161 153 145 145 128 124 134 151 161 177 180 169 173 159 153 151 144 152 167 154 162 167 167 186 178 192 146 152 145 181 160 154 143 129 167 166 163 160 149 151 151 153 123 147 134 115 106 122
160 162 153 149 151 151 160 160 149 151 141 150 152 157 156 155 152 157 148 131 127 133 131 131 127 132 149 158 153 154 149 149 156 154 154 158 150 168 160 175 174 136 141 143 135 129 110 144 145 154 165 162 158 161 159 155 142 143 149 154 144 133 124
166 163 146 146 149 158 164 159 147 148 152 146 150 152 156 156 157 159 151 136 127 130 126 121 114 115 146 141 137 148 131 141 146 147 149 147 148 158 151 172 151 146 120 149 122 128 134 149 141 142 124 102 164 171 159 156 139 153 137 145 136 139 144
172 159 153 157 157 166 165 160 157 153 148 151 155 157 165 162 165 164 151 143 138 139 140 127 137 137 132 126 127 127 129 144 143 141 140 145 146 152 153 155 157 133 138 131 133 140 130 141 141 125 91 69 60 100 142 138 147 117 139 146 122 141 146
174 166 160 159 168 171 168 162 159 156 156 159 160 163 170 169 169 167 160 148 149 153 152 152 143 127 136 131 129 119 116 133 132 134 137 148 149 150 153 155 156 139 143 145 143 134 137 135 135 111 103 96 91 73 136 156 145 133 155 147 144 145 153
167 167 162 163 170 169 166 168 164 157 159 166 163 168 172 172 170 168 161 160 155 156 155 153 141 138 134 124 110 109 122 125 123 119 130 134 138 145 152 147 144 138 148 147 136 141 142 139 141 128 116 110 111 118 90 93 121 134 123 128 153 158 153
162 157 155 156 159 156 161 167 169 167 164 158 169 173 172 168 167 168 163 157 152 152 159 149 151 143 133 124 114 111 113 104 96 111 122 128 130 132 140 144 137 136 148 139 145 147 142 148 151 154 146 138 121 120 119 134 120 141 147 161 167 161 155
159 158 156 158 149 150 157 167 167 165 160 158 167 178 164 165 166 163 159 157 153 150 149 145 142 140 133 138 132 118 111 104 107 117 124 126 128 132 136 131 132 134 141 141 152 137 144 159 161 141 136 148 125 138 124 80 167 145 159 168 177 173 174
160 160 161 161 158 158 163 164 160 163 158 159 161 165 158 165 160 161 159 161 153 154 143 146 147 146 142 134 139 138 131 125 122 113 115 124 124 125 127 129 131 136 139 141 148 146 162 150 173 144 157 140 168 163 174 196 274 280 160 170 185 193 175
163 164 162 162 158 155 157 155 155 157 156 158 154 156 160 160 163 158 164 167 158 157 152 152 144 134 129 133 121 127 131 119 117 106 96 99 119 129 132 132 134 132 141 141 150 155 156 166 179 162 178 172 181 164 196 222 218 219 206 194 178 204 172
167 165 161 161 156 155 155 153 152 153 158 153 151 159 160 164 167 160 166 162 154 157 154 151 154 149 138 134 127 115 119 125 117 118 113 113 107 110 119 128 139 150 154 159 161 165 175 181 195 214 211 247 223 171 213 216 226 228 224 215 187 196 185
166 161 159 155 150 150 150 148 152 152 152 148 153 157 160 162 165 161 151 144 145 147 149 154 145 147 147 144 140 134 133 132 129 112 121 112 104 107 121 118 126 138 154 157 161 179 188 201 214 223 231 217 253 226 202 223 218 215 225 228 204 196 196
154 148 146 146 144 140 141 146 146 142 144 146 150 156 153 156 154 155 141 153 138 137 144 158 152 155 153 146 145 147 139 147 141 138 133 131 120 124 114 124 132 135 154 152 147 166 176 196 180 218 185 219 235 230 233 222 224 228 215 227 232 201 205
97 120 138 145 138 140 141 138 142 142 142 139 139 135 145 148 156 146 144 142 144 145 151 149 151 161 151 149 153 154 158 152 152 149 153 143 145 147 152 131 136 73 49 32 31 18 16 8 320 238 164 228 239 231 243 251 239 237 236 231 230 228 222
80 81 129 148 145 141 137 126 121 120 120 120 118 117 126 136 142 149 153 145 138 141 139 110 29 5 355 146 161 151 158 161 165 160 163 151 159 174 168 156 118 85 83 67 53 41 23 346 346 352 342 299 247 246 250 255 256 249 251 244 235 237 235
83 78 61 106 120 119 119 117 110 105 106 108 106 106 104 118 135 133 135 137 136 147 116 83 37 343 339 342 317 156 167 163 171 168 174 179 179 182 190 188 167 151 160 165 164 135 31 15 358 342 335 335 330 325 295 269 255 271 267 263 255 238 238
110 96 78 55 60 59 61 85 94 93 92 89 87 119 138 121 73 305 139 137 129 131 92 42 12 351 323 318 317 253 180 178 181 186 187 195 194 193 186 186 194 170 205 187 196 165 167 176 223 302 308 315 312 305 305 322 302 279 265 265 265 260 255
103 96 86 82 79 70 62 67 68 71 79 81 97 103 104 126 207 236 274 191 104 84 76 27 357 348 315 303 297 302 209 195 201 198 199 201 212 215 209 197 192 199 156 110 224 220 199 173 180 212 286 284 276 264 279 286 277 288 299 276 270 270 265
118 113 112 115 103 81 70 65 73 71 69 74 76 104 123 131 188 198 167 122 86 69 55 20 0 353 330 315 300 297 265 216 232 214 210 211 208 219 221 235 232 212 184 185 219 221 229 239 198 196 214 225 236 211 222 247 259 261 252 269 271 267 268
119 113 109 97 85 99 95 93 98 125 133 114 114 117 117 118 135 127 103 96 87 73 50 9 358 340 320 299 290 284 258 239 238 233 228 226 221 228 220 230 256 268 255 231 227 168 246 241 248 247 248 243 240 247 231 226 227 233 234 238 254 263 269
112 122 123 117 111 107 105 108 111 109 104 103 102 109 102 106 95 82 95 103 95 82 54 20 350 340 325 311 296 254 222 222 237 242 218 193 213 213 228 238 258 256 245 252 111 101 352 311 272 258 252 252 255 253 250 72 47 15 344 315 301 319 327
73 79 84 88 85 85 97 115 119 120 117 118 119 111 102 82 72 68 71 86 91 80 57 20 0 349 330 328 301 260 191 236 187 220 230 191 235 227 235 249 285 293 270 17 111 128 137 310 264 265 261 262 265 262 251 133 86 61 20 343 333 343 347
72 68 68 75 79 79 73 70 69 72 99 110 106 103 104 96 82 70 69 69 72 84 65 33 12 12 358 346 318 294 266 255 237 259 251 228 270 271 90 73 345 273 267 85 50 79 160 215 247 256 261 261 263 260 257 177 175 132 115 102 94 84 78
67 69 67 65 68 76 75 73 77 74 71 67 53 67 89 87 82 78 71 68 43 70 71 51 25 19 15 11 342 318 328 302 300 293 304 288 289 287 170 132 80 48 35 42 43 103 221 230 250 256 258 264 260 259 265 203 180 181 190 186 169 158 140
52 53 57 59 59 60 67 77 81 86 87 87 76 63 78 87 86 80 83 77 65 58 66 60 35 16 20 16 1 332 11 356 4 347 336 348 322 289 285 133 101 91 77 50 15 312 258 247 255 262 258 258 261 266 275 247 198 270 239 239 225 165 135
51 49 51 57 60 62 64 71 81 90 96 102 109 92 79 83 85 80 79 81 75 55 37 57 64 41 31 25 16 356 33 15 21 337 294 253 243 250 242 256 129 71 46 31 355 318 286 260 260 269 261 253 278 18 348 262 113 174 249 211 170 166 157
46 45 41 47 56 62 59 63 71 82 96 105 112 111 114 115 114 107 94 83 87 91 62 41 54 53 45 49 39 22 39 43 350 313 287 261 293 312 347 3 355 45 18 351 341 324 284 271 261 259 260 315 1 313 276 272 244 224 233 200 201 187 185
44 42 42 43 47 49 47 53 56 64 85 105 109 113 114 123 125 117 113 107 108 105 102 81 47 57 51 48 56 55 37 50 270 272 319 359 7 354 1 341 48 31 352 334 322 322 294 266 242 236 267 298 281 269 270 254 259 248 241 221 214 208 187
37 37 34 34 44 43 40 41 49 48 40 53 87 98 103 113 123 128 128 122 121 119 124 110 97 76 71 68 50 42 32 10 352 0 329 1 355 5 346 358 348 339 322 312 304 303 303 235 265 311 262 254 236 221 243 243 237 232 229 217 216 202 191